Hourly Data Report for October 06, 2014

All times are specified in Local Standard Time (LST). Add 1 hour to adjust for Daylight Saving Time where and when it is observed.

SAINT JOHN A
NEW BRUNSWICK

45°18'58.000" N
65°53'24.000" W
108.80 m
8104901
71609
YSJ

Download Data

Hourly Data (October 2014)
Hourly Data Report for October 6, 2014
Temp Definition
°C
Dew Point Temp Definition
°C
Rel Hum Definition
%
Wind Dir Definition
10's deg

Wind Spd Definition
km/h
Visibility Definition
km
Stn Press Definition
kPa
Hmdx Definition


Wind Chill Definition


Weather Definition


TIME
00:00 Legend Double Dagger 9.1 9.1 100 27 7 24.1 99.82     LegendNANA
01:00 Legend Double Dagger 8.8 8.7 99 26 7 24.1 99.91     LegendNANA
02:00 Legend Double Dagger 8.5 8.2 98 29 3 24.1 100.04     Mainly Clear
03:00 Legend Double Dagger 5.1 5.1 100 31 7 24.1 100.08     LegendNANA
04:00 Legend Double Dagger 6.3 4.6 89 32 8 24.1 100.14     LegendNANA
05:00 Legend Double Dagger 3.4 3.3 99 36 2 24.1 100.22     Mainly Clear
06:00 Legend Double Dagger 1.7 1.7 100 36 1 24.1 100.32     LegendNANA
07:00 Legend Double Dagger 1.6 1.6 100 0 1 24.1 100.42     LegendNANA
08:00 Legend Double Dagger 8.1 7.7 97 32 12 24.1 100.46     Clear
09:00 Legend Double Dagger 11.5 5.4 66 31 8 24.1 100.56     LegendNANA
10:00 Legend Double Dagger 12.9 5.1 59 31 9 24.1 100.65     LegendNANA
11:00 Legend Double Dagger 14.3 5.5 55 23 7 24.1 100.68     Clear
12:00 Legend Double Dagger 15.1 4.3 48 29 10 24.1 100.71     LegendNANA
13:00 Legend Double Dagger 16.0 5.1 48 21 14 24.1 100.72     LegendNANA
14:00 Legend Double Dagger 15.6 3.2 43 21 20 24.1 100.74     Mainly Clear
15:00 Legend Double Dagger 15.8 2.3 40 22 16 24.1 100.77     LegendNANA
16:00 Legend Double Dagger 15.4 2.3 41 22 15 24.1 100.80     LegendNANA
17:00 Legend Double Dagger 14.4 3.6 48 22 10 24.1 100.84     Clear
18:00 Legend Double Dagger 11.0 4.7 65 18 4 24.1 100.89     LegendNANA
19:00 Legend Double Dagger 7.1 4.4 83 36 2 24.1 100.92     LegendNANA
20:00 Legend Double Dagger 5.4 4.2 92 36 1 24.1 100.98     Mainly Clear
21:00 Legend Double Dagger 4.2 3.5 95 36 2 24.1 101.05     LegendNANA
22:00 Legend Double Dagger 3.8 3.8 100 36 3 24.1 101.12     LegendNANA
23:00 Legend Double Dagger 3.3 3.3 100 36 2 24.1 101.15     LegendNANA

Notes on Data Quality.

Legend

  • E = Estimated
  • M = Missing
  • NA = Not Available
  • ‡ = Partner data that is not subject to review by the National Climate Archives
Date modified: